Weather History for Seward, AK

Change the Weather History Date:

Friday, March 22, 2013

  Actual Average Record
Temperature  
Mean Temperature 31 °F -  
Max Temperature 36 °F 39 °F 50 °F (1965)
Min Temperature 26 °F 28 °F 5 °F (1951)
Degree Days  
Heating Degree Days 34    
Moisture  
Dew Point 28 °F    
Average Humidity 89    
Maximum Humidity 100    
Minimum Humidity 52    
Precipitation  
Precipitation 0.88 in - - ()
Sea Level Pressure  
Sea Level Pressure 29.98 in    
Wind  
Wind Speed 7 mph (SSW)    
Max Wind Speed 16 mph    
Max Gust Speed 22 mph    
Visibility 4 miles    
Events Fog , Rain , Snow    
Averages and records for this station are not official NWS values.
T = Trace of Precipitation, MM = Missing Value Source: NWS Daily Summary

Daily Weather History Graph

Daily Weather History Graph

Search for Another Location

Airport:

Trip Planner

Search our weather history database for the weather conditions in past years. The results will help you decide how hot, cold, wet, or windy it might be!

Date:

Astronomy

Mar. 22, 2013 Rise Set
Actual Time 7:51 AM AKDT 8:18 PM AKDT
Civil Twilight 7:09 AM AKDT 9:00 PM AKDT
Nautical Twilight 6:19 AM AKDT 9:51 PM AKDT
Astronomical Twilight 5:23 AM AKDT 10:47 PM AKDT
Moon 2:56 PM AKDT (3/22) 6:01 AM AKDT (3/22)
Length of Visible Light 13h 50m
Length of Day
12h 26m
Waxing Gibbous, 78% of the Moon is Illuminated
Mar 22
Waxing Gibbous
Mar 27
Full
Apr 2
Last Quarter
Apr 10
New
Apr 18
First Quarter

Hourly Weather History & Observations

Time (AKDT) Temp. Windchill Dew Point Humidity Pressure Visibility Wind Dir Wind Speed Gust Speed Precip Events Conditions
12:53 AM 30.9 °F 21.2 °F 15.1 °F 52% 30.18 in 10.0 mi SSW 12.7 mph - N/A   Overcast
1:53 AM 30.9 °F 22.2 °F 16.0 °F 54% 30.17 in 10.0 mi SSW 10.4 mph - N/A   Overcast
2:53 AM 30.9 °F 23.5 °F 18.0 °F 59% 30.16 in 10.0 mi SW 8.1 mph - N/A   Overcast
3:53 AM 30.0 °F 20.0 °F 23.0 °F 75% 30.15 in 3.0 mi SSW 12.7 mph - 0.00 in Snow Light Snow
4:02 AM 30.2 °F 19.8 °F 23.0 °F 75% 30.14 in 2.0 mi SSW 13.8 mph - 0.00 in Snow Light Snow
4:18 AM 30.2 °F 20.2 °F 24.8 °F 80% 30.13 in 1.8 mi SSW 12.7 mph - 0.00 in Snow Light Snow
4:53 AM 30.0 °F 25.2 °F 26.1 °F 85% 30.11 in 1.8 mi South 4.6 mph - 0.00 in Snow Light Snow
5:00 AM 30.2 °F 26.7 °F 26.6 °F 86% 30.11 in 3.0 mi South 3.5 mph - 0.00 in Snow Light Snow
5:17 AM 30.2 °F 23.4 °F 24.8 °F 80% 30.10 in 6.0 mi SSE 6.9 mph - 0.00 in Snow Light Snow
5:53 AM 28.0 °F 22.8 °F 25.0 °F 88% 30.10 in 3.0 mi North 4.6 mph - 0.00 in Snow Light Snow
6:01 AM 28.4 °F 23.3 °F 24.8 °F 86% 30.10 in 2.0 mi North 4.6 mph - 0.00 in Snow Light Snow
6:03 AM 28.4 °F 23.3 °F 24.8 °F 86% 30.09 in 2.0 mi North 4.6 mph - 0.00 in Snow Light Snow
6:10 AM 28.4 °F 23.3 °F 24.8 °F 86% 30.09 in 1.2 mi North 4.6 mph - 0.00 in Snow Light Snow
6:17 AM 28.4 °F 23.3 °F 24.8 °F 86% 30.08 in 0.8 mi North 4.6 mph - 0.00 in Snow Light Snow
6:32 AM 28.4 °F 22.2 °F 24.8 °F 86% 30.08 in 1.2 mi North 5.8 mph - 0.00 in Snow Light Snow
6:48 AM 28.4 °F 23.3 °F 24.8 °F 86% 30.08 in 1.0 mi North 4.6 mph - 0.00 in Snow Light Snow
6:53 AM 28.0 °F 24.2 °F 25.0 °F 88% 30.08 in 0.8 mi North 3.5 mph - 0.00 in Snow Light Snow
7:11 AM 28.4 °F 24.6 °F 24.8 °F 86% 30.07 in 1.0 mi NW 3.5 mph - 0.00 in Snow Light Snow
7:30 AM 26.6 °F 21.2 °F 24.8 °F 93% 30.06 in 0.8 mi North 4.6 mph - 0.00 in Snow Light Snow
7:39 AM 28.4 °F 23.3 °F 24.8 °F 86% 30.06 in 0.8 mi North 4.6 mph - 0.00 in Snow Light Snow
7:51 AM 28.4 °F - 24.8 °F 86% 30.05 in 1.0 mi Calm Calm - 0.00 in Snow Light Snow
7:53 AM 28.0 °F 22.8 °F 25.0 °F 88% 30.05 in 1.0 mi Variable 4.6 mph - 0.00 in Snow Light Snow
8:03 AM 28.4 °F 23.3 °F 24.8 °F 86% 30.05 in 0.8 mi North 4.6 mph - 0.00 in Snow Light Snow
8:53 AM 28.0 °F 24.2 °F 26.1 °F 92% 30.04 in 0.2 mi North 3.5 mph - 0.00 in Fog , Snow Heavy Snow
9:53 AM 28.0 °F - 26.1 °F 92% 30.02 in 0.2 mi Calm Calm - 0.00 in Fog , Snow Snow
10:06 AM 28.4 °F - 26.6 °F 93% 30.01 in 0.8 mi Calm Calm - 0.00 in Snow Light Snow
10:16 AM 28.4 °F - 26.6 °F 93% 30.01 in 0.2 mi Calm Calm - 0.00 in Fog , Snow Snow
10:53 AM 28.9 °F - 27.0 °F 92% 30.00 in 0.8 mi Calm Calm - 0.00 in Snow Light Snow
11:15 AM 28.4 °F - 26.6 °F 93% 29.99 in 1.0 mi Calm Calm - 0.00 in Snow Light Snow
11:25 AM 28.4 °F 23.3 °F 26.6 °F 93% 29.99 in 1.5 mi North 4.6 mph - 0.00 in Snow Light Snow
11:42 AM 30.2 °F - 26.6 °F 86% 29.98 in 1.5 mi Calm Calm - 0.00 in Snow Light Snow
11:53 AM 28.9 °F - 27.0 °F 92% 29.98 in 1.0 mi Calm Calm - 0.00 in Snow Light Snow
12:00 PM 28.4 °F - 26.6 °F 93% 29.97 in 0.8 mi Calm Calm - 0.00 in Snow Light Snow
12:09 PM 30.2 °F - 26.6 °F 86% 29.97 in 1.0 mi Calm Calm - 0.00 in Snow Light Snow
12:18 PM 30.2 °F 23.4 °F 26.6 °F 86% 29.97 in 0.8 mi North 6.9 mph - 0.00 in Snow Light Snow
12:29 PM 30.2 °F 25.4 °F 26.6 °F 86% 29.96 in 1.2 mi NNE 4.6 mph - 0.00 in Snow Light Snow
12:51 PM 30.2 °F 26.7 °F 28.4 °F 93% 29.96 in 0.8 mi NNW 3.5 mph - 0.00 in Snow Light Snow
12:53 PM 30.0 °F 26.5 °F 28.0 °F 92% 29.96 in 0.8 mi NNW 3.5 mph - 0.00 in Snow Light Snow
1:01 PM 30.2 °F 24.3 °F 28.4 °F 93% 29.96 in 0.5 mi North 5.8 mph - 0.00 in Fog , Snow Snow
1:10 PM 30.2 °F - 28.4 °F 93% 29.96 in 0.5 mi Calm Calm - 0.00 in Fog , Snow Snow
1:21 PM 30.2 °F 26.7 °F 28.4 °F 93% 29.95 in 0.2 mi SE 3.5 mph - 0.00 in Fog , Snow Heavy Snow
1:42 PM 30.2 °F 25.4 °F 28.4 °F 93% 29.95 in 0.2 mi WSW 4.6 mph - 0.00 in Fog , Snow Heavy Snow
1:53 PM 30.9 °F 26.2 °F 28.9 °F 92% 29.95 in 0.2 mi NNW 4.6 mph - 0.00 in Fog , Snow Heavy Snow
2:09 PM 33.8 °F - 30.2 °F 87% 29.93 in 0.2 mi Calm Calm - 0.00 in Fog , Snow Snow
2:53 PM 33.1 °F 26.9 °F 30.9 °F 92% 29.93 in 0.2 mi SSE 6.9 mph - 0.00 in Fog , Snow Heavy Snow
3:53 PM 33.1 °F - 32.0 °F 96% 29.91 in 0.5 mi Calm Calm - 0.03 in Fog , Snow Snow
4:05 PM 33.8 °F 27.7 °F 32.0 °F 93% 29.90 in 1.2 mi South 6.9 mph - 0.00 in Snow Light Snow
4:11 PM 35.6 °F 27.5 °F 32.0 °F 87% 29.90 in 3.0 mi SSE 11.5 mph 17.3 mph 0.00 in Snow Light Snow
4:18 PM 35.6 °F 28.0 °F 33.8 °F 93% 29.90 in 6.0 mi South 10.4 mph 18.4 mph 0.00 in Snow Light Snow
4:32 PM 35.6 °F 28.0 °F 33.8 °F 93% 29.89 in 8.0 mi South 10.4 mph 19.6 mph 0.01 in Rain Light Rain
4:53 PM 36.0 °F 28.5 °F 32.0 °F 86% 29.89 in 8.0 mi South 10.4 mph 21.9 mph 0.03 in   Overcast
5:09 PM 35.6 °F 28.0 °F 33.8 °F 93% 29.89 in 5.0 mi South 10.4 mph - 0.01 in   Overcast
5:25 PM 35.6 °F 29.2 °F 33.8 °F 93% 29.88 in 4.0 mi South 8.1 mph 16.1 mph 0.04 in   Overcast
5:53 PM 36.0 °F 29.6 °F 33.1 °F 89% 29.88 in 7.0 mi South 8.1 mph 17.3 mph 0.12 in   Overcast
6:32 PM 35.6 °F 28.0 °F 33.8 °F 93% 29.87 in 7.0 mi South 10.4 mph 17.3 mph 0.12 in   Overcast
6:42 PM 35.6 °F 27.5 °F 33.8 °F 93% 29.87 in 4.0 mi South 11.5 mph 19.6 mph 0.15 in Rain Light Rain
6:53 PM 35.1 °F 27.9 °F 33.1 °F 92% 29.87 in 4.0 mi South 9.2 mph 18.4 mph 0.18 in   Overcast
7:20 PM 33.8 °F 23.5 °F 33.8 °F 100% 29.86 in 5.0 mi SSW 16.1 mph - 0.06 in   Overcast
7:53 PM 34.0 °F 24.6 °F 33.1 °F 96% 29.86 in 9.0 mi SSW 13.8 mph - 0.15 in Snow Light Snow
8:05 PM 33.8 °F 24.3 °F 33.8 °F 100% 29.86 in 7.0 mi SSW 13.8 mph - 0.03 in   Overcast
8:31 PM 33.8 °F 24.3 °F 33.8 °F 100% 29.86 in 7.0 mi SSW 13.8 mph - 0.07 in   Overcast
8:53 PM 34.0 °F 26.0 °F 33.1 °F 96% 29.87 in 10.0 mi SSW 10.4 mph - 0.10 in   Overcast
9:16 PM 33.8 °F 24.8 °F 33.8 °F 100% 29.87 in 10.0 mi SSW 12.7 mph - 0.05 in   Overcast
9:34 PM 35.6 °F 27.1 °F 33.8 °F 93% 29.87 in 10.0 mi SSW 12.7 mph - 0.06 in   Overcast
9:45 PM 35.6 °F 28.6 °F 33.8 °F 93% 29.87 in 10.0 mi South 9.2 mph - 0.08 in   Overcast
9:53 PM 35.1 °F 26.9 °F 33.1 °F 92% 29.87 in 10.0 mi South 11.5 mph - 0.09 in   Overcast
10:27 PM 35.6 °F 28.6 °F 33.8 °F 93% 29.86 in 9.0 mi South 9.2 mph - 0.06 in   Overcast
10:53 PM 35.1 °F 27.4 °F 33.1 °F 92% 29.86 in 9.0 mi South 10.4 mph - 0.11 in   Overcast
11:53 PM 35.1 °F 27.9 °F 33.1 °F 92% 29.85 in 10.0 mi South 9.2 mph - 0.07 in   Overcast